Showing default

COSMOS 2589, 64467

Orbit data source: Space-Track

COSMOS 2589, 64467 is a payload satellite owned by Resehetnev ISS (CIS) in GEO that was launched on Thu, 19 Jun 2025 UTC via an ANGARA A5 launch vehicle from the Plesetsk Missile And Space Complex (PKMTR). Payload-class satellites include a variety of spacecraft equipped with specific instruments for various scientific and technological missions. These include communications satellites like Starlink; space stations such as the ISS; scientific satellites like the Hubble; Earth observation satellites from companies like Planet Labs, Umbra, and HawkEye 360; GPS; miniature CubeSats for education and research; and military/defense satellites.

Not visible in the next 10 days
Identifier
64467, 2025-131A
Orbit
GEO
Country
Flag of CISCIS
Related business
Manufacturer
RESH/TSKHM
Mission
Operational Defense Technology
Bus & Motor
14F166, Unknown motor
Mass
~3,200 kg wet, 2,700 kg dry
Launch date (UTC)
2025-06-19 (10 months ago)
Launch vehicle
ANGARA A5
Launch site
Plesetsk Missile And Space Complex (PKMTR)
Object type
Payload
Rocket body
Debris
Shape & HBR
Flared Cyl, 2.0 m
Radar Cross Section
7.854 m², Large (>1 m²)

Expand to show TLE details & history
Last TLE update: 2 days ago

TLE from 2 days ago
0 COSMOS 2589
1 64467U 25131A   26093.55369897 -.00000338  00000-0  00000+0 0  9995
2 64467   0.1269 354.5994 0444973 114.2923  17.2415  1.00284936  2813
Epoch: 2026-04-03T13:17Z
TLE epoch observation values (Epoch: 2026-04-03T13:17:19.591Z)
Latitude
0.06369°
Longitude
96.50947°
Altitude
34,007.404 km
Speed
3.207 km/s
True Right ascension
08h 30m 54s
True Declination
0° 03' 49"
Sunlit
Object was in daylight at epoch
Visualization orbit readout
Latitude
Unknown
Longitude
Unknown
Altitude
Unknown
Speed
Unknown
Apparent Right ascension
Unknown
Apparent Declination
Unknown
Sunlit
N/A
Visualization observer readout
Local Sidereal Time
19:27:55
Azimuth
Unknown
Elevation
Unknown
Doppler factor
Unknown
Orbital elements
Apogee altitude
37,660.083 km
Perigee altitude
33,907.882 km
Semi-major axis
42,162.119 km
Eccentricity
0.0445
Inclination
0.1269°
RAAN
354.5994°
Arg. of periapsis
114.2923°
True anomaly
18.83723°
Mean anomaly
17.2415°
Eccentric anomaly
18.03064°
Mean motion
0.2507 °/min
Orbital period
1,435.96 mins
BSTAR
0
Loading maneuver chart data...
Computing Atmospheric mass density...
Loading historical data...
Loading historical data...
Loading historical data...
Loading historical data...
Loading historical data...
Loading historical data...
Loading historical data...
Other satellites on launch #131 in the year 2025 (2025-06-19 UTC)

Documentation

Showing up to 5 results
|